Torna al catalogo

SL-6 R/B(2)

AttivoHEO
NORAD 15439·ROCKET BODY·🇷🇺 Russia

Lanciato Dec 14, 1984 da Plesetsk Cosmodrome

Loading…

Prossimi Passaggi (prossime 24 ore)

TLE

AggiornatoSource: Space-Track

Epoca: Sep 11, 2026, 18:06 UTC

1 15439U 84124H   26254.75441279  .00000684  00000-0  36115-3 0  9996
2 15439  62.7086 340.9311 7480518 258.7923  17.0746  1.96374349256423

Traccia SL-6 R/B(2) in tempo reale con AllMySat

Download on the App Store